CAPE
2675 2583 2530 2320 2273 2347 2294 2134 1955 1952 2056 2359 2479 2430 2432 2470 2602 2693 2860 2668 2531 2456 1492 1480 1412 1562 1639 1768 1411 1159 894 864 827 917 1024 1081 1073 1332 1991 2643 2536 2504 2917 3243 3338 2956 2774 2429 2039 1539 1575 2012 2366 2727 2625 2836 2815 2662 2592 2563 2531 2852 2880 2977 2827 2660 2573 2431 2302 2284 2243 2239 2376 2184 2381 2604 2660 2765 2560 2139 2248 2321 2261 2305 2151
2558 2497 2484 2179 1915 2004 2156 1995 1856 1839 1655 1928 2330 2328 2233 2175 2336 2487 2873 2388 2394 1451 1452 1212 1472 1436 1447 1079 948 857 957 1023 1059 1021 914 868 855 989 1632 2274 2814 2918 2780 3014 2952 2390 2270 2314 2468 2018 1862 2058 2162 1580 2071 2446 2527 2453 2314 2388 2197 2149 2098 2310 2332 2236 2154 1995 2095 2017 1737 2061 2140 2114 2192 2282 2325 2456 2440 2238 2216 2201 2252 2228 2194
2362 2267 2268 2125 1432 1386 1591 1827 1868 1880 1913 1717 2070 2304 2261 2235 2056 2202 2579 1922 1354 1714 1071 1111 1610 1449 1784 1744 999 1111 1150 994 850 801 812 826 832 873 1110 1755 2393 2989 3298 3255 2618 2111 2080 2441 2537 1996 1626 1958 2014 1702 1546 2259 2576 2461 2495 2538 2241 2338 2308 2113 2060 1879 1941 2147 2136 1973 1841 1824 2007 2206 2172 2185 2215 2286 2389 2360 2185 2184 2166 2193 2202
2422 2182 1795 1887 1695 1288 1448 1621 1827 1928 1897 1786 1724 2124 2193 2186 2094 2148 2336 1291 1329 1338 1809 1299 1106 1109 1074 1137 948 914 894 780 666 615 602 648 709 836 1010 1453 1901 2382 2810 3075 3279 3214 2471 2064 2349 1703 2684 2074 1956 2108 1852 1811 2017 2066 2255 2479 2175 2288 2158 1835 1652 1505 1604 1784 2035 1995 1795 1870 1900 2010 2154 2159 2213 2280 2323 2336 2254 2115 2126 2095 2116
2885 2276 2204 1564 1682 1376 1471 1588 1684 1723 1719 1642 1502 1616 1786 1842 1702 1987 1343 1443 1602 1590 1811 1239 1063 883 829 748 655 753 823 760 600 562 632 716 805 1006 1331 1566 1760 2298 2496 3104 4043 3494 2383 2001 2167 2031 2408 2105 2347 2055 2123 1920 1896 1963 2168 1917 2084 1894 1855 1760 1331 1212 1337 1783 1913 2117 1933 1809 1845 1913 2079 2131 2042 2076 2221 2284 2234 2169 2138 2128 2160
3036 2554 2117 1606 1569 1531 1398 1250 1115 779 1403 1370 1111 1247 1157 1314 1358 1154 1647 1854 1636 1627 1365 1444 1093 1031 701 554 567 829 750 473 525 626 719 882 1081 1403 1614 1700 1663 1404 1268 2630 3303 2789 2128 1860 2561 2577 2374 2034 2043 1988 2267 2266 2109 2014 2150 1894 1382 1638 1623 1609 943 1049 1310 1926 2062 2032 2143 1927 1850 1929 1839 1926 2089 2004 2067 2158 2110 2117 2172 2201 2106
2736 2730 2730 1978 1851 1766 1785 1663 1397 2058 1805 1434 1090 1416 1398 1457 1494 1607 1790 1643 1640 1712 1662 1498 1380 1242 880 1021 742 886 762 596 570 641 877 1129 1478 1837 1983 1862 1799 1758 1767 2433 3215 2188 1973 1968 2003 2301 2321 2232 1777 1851 1801 2016 1886 1796 2128 1835 1530 1362 1180 1338 1269 783 965 1145 1510 2158 2111 1976 1870 1955 1946 1831 2004 2076 2111 2080 2080 2091 2066 2186 2208
3016 2366 2285 2292 2265 2228 2270 2031 2612 2576 2295 2525 1589 912 749 2044 2314 1498 1715 1739 2085 2343 2079 1872 1850 1494 1074 1024 1240 1351 1112 903 887 1104 1287 1764 2312 2555 2403 2056 1748 1478 1387 1277 1619 1842 2167 2149 2286 2244 2225 1978 1876 1757 1706 1700 1622 1542 1754 1572 1445 1428 1225 1338 960 824 1056 1251 1274 1588 2138 2194 2013 1917 1630 1867 1833 2018 2046 2059 2125 2157 2144 2144 2177
2606 3108 2354 2302 2232 2474 2371 2160 2216 1705 1291 1335 1390 2644 947 1275 2277 3726 2251 2339 2370 2348 2201 2018 2027 1413 1055 1027 1147 1469 1479 1326 1227 1315 1750 1944 2355 2450 2308 1803 1724 1909 1832 1710 1690 1553 1876 2228 2368 2198 2048 2036 1945 1873 1904 1621 1563 1750 1079 1074 1300 1351 1286 1450 1390 1306 1030 1102 1270 1256 1763 1943 2086 1955 1639 1763 1709 1816 1887 1936 2040 2062 2156 2152 2152
2443 2591 2431 2493 2748 2374 2232 2261 2112 1574 1176 960 890 1525 1266 1284 1543 2720 2726 2415 2202 2273 2076 2005 1861 1442 1028 900 1101 1020 883 1071 1345 2166 2434 2456 2491 2535 2132 2146 2197 2354 1872 1647 1676 1869 1496 1646 2045 2112 2084 2088 1972 1833 1542 1572 1420 1128 813 836 954 1160 1254 1106 1358 1389 1170 1236 1381 1420 1277 1941 1761 1811 1683 1726 1600 1639 1755 1851 1995 1996 2065 2070 2125
2342 2503 2403 2617 2722 2591 2573 2341 2948 1626 1223 1061 928 1352 1897 2268 2260 3022 4118 3002 2436 2373 2292 2010 1790 1387 1216 1181 1510 1746 1625 1490 2097 2114 2581 2911 2937 2720 2573 1943 2194 2070 1996 1920 1972 1674 1589 1652 1796 1805 2001 2287 2326 2160 1812 1537 1321 1064 946 1037 1012 1162 1307 1450 1338 1209 1331 1401 1448 1547 1519 1894 1770 1832 1775 1805 1754 1647 1681 1922 1878 1914 2049 2058 2035
2381 2337 2318 2959 2893 2790 2640 2457 2438 2088 1779 1512 1446 1242 1314 1650 2736 2740 2285 2147 2760 2562 2310 2279 1757 1769 2155 2041 1558 1662 2158 2542 2748 2778 3049 3019 2771 3056 2557 2365 2315 2362 2305 2058 2133 1929 1706 1584 1981 1980 1888 2152 2149 2211 1998 1558 1139 968 1172 1178 1497 1242 1447 1448 1267 1303 1332 1265 1458 1409 1610 1760 2001 1932 1900 1822 1826 1797 1836 1766 1756 1820 1877 2041 2048
2507 2228 2210 2886 3306 2778 2718 2486 2802 2147 2069 1765 1408 1896 2272 2570 3458 4386 2509 2081 1844 2463 2351 1992 1900 1814 2109 2289 2373 2274 2330 3084 2723 2884 2905 2515 2606 2646 2778 2384 2650 2613 2372 2072 2135 1928 1683 1261 1622 1657 1625 1421 1605 2010 1626 1482 1356 1306 1377 1565 1809 2010 1986 1950 1775 1803 1706 1673 1439 1530 1619 1582 2034 1511 1750 1825 1871 1715 1596 1677 1662 1704 1827 1888 1862
3007 2356 2604 2212 2456 2561 2310 1945 2585 2594 2999 3927 2784 5208 3416 2907 2490 2136 2933 2024 2113 2683 2192 1266 1181 1290 1450 1819 1736 1709 2197 2258 1762 1771 1657 1925 2614 2699 3309 2770 3211 2977 2488 2322 2089 2018 1833 1508 1318 1465 1321 1194 1807 2134 1771 1679 1366 1811 1771 1877 1740 1803 1888 1874 1767 1764 1575 1451 1665 1604 1616 1687 1741 1516 1622 1795 1800 1663 1729 1673 1623 1584 1660 1798 1803
2775 2772 2578 2426 2359 2376 2181 1912 2422 3280 2300 1902 2949 2753 2425 2534 2422 2138 1719 1925 2559 2191 1613 1354 1003 2005 2346 2110 1686 1404 1389 1282 1479 1666 1789 1957 2419 3016 2775 2557 2192 2028 1636 1503 1809 1861 1791 1614 1355 1536 1410 1603 2091 2137 2085 2006 2041 2130 2054 1801 1782 1752 1928 1935 1830 1800 1727 1679 1546 1719 1747 1702 1650 1689 1579 1610 1748 1698 1644 1692 1433 1238 1519 1631 1642
2386 2626 2573 2422 2330 2225 2144 1899 1989 2595 2208 1945 2040 2085 2293 2141 1998 2149 1838 1883 1880 1910 2217 1837 1491 2338 1679 1879 1566 1575 891 854 1431 1484 1878 2020 1959 1967 1541 1548 1542 1689 1615 1340 1902 1575 1614 1573 1664 1656 1778 2059 2014 2181 2305 2232 2364 1990 2249 2035 2042 1792 1526 1680 1806 1433 1413 1455 963 1121 1701 1661 1547 1682 1358 1460 1650 1428 1339 1095 1266 1216 1343 1270 1498
2151 2358 2597 2294 2252 2159 2083 1918 1685 1932 2629 2089 2035 2200 2354 2163 1958 1957 2607 2174 1880 1885 2176 2204 1564 1883 1555 1303 936 951 933 1182 1585 1602 1694 1752 1438 1326 1853 1803 1867 1815 1328 1464 1884 1593 1998 2163 1946 2001 2128 2159 2114 1994 2159 2369 2096 2592 2037 1930 1858 1692 1633 1499 1378 1194 896 610 844 1266 1285 1416 1574 1578 1261 1234 1385 1242 1157 1225 1284 1178 1323 1317 1389
2186 2139 2274 2206 2068 2029 1956 1912 1723 2248 2634 2288 2221 2286 2121 2009 1990 1986 2094 2121 1882 2008 1921 2108 2302 3062 2725 1061 1108 1016 1237 1423 1733 1613 1202 1514 1300 1331 868 1402 1573 1585 1232 1426 1799 1703 2379 2210 1493 1228 1513 1842 1878 2023 2156 1957 2451 1998 1665 1834 1678 1557 1260 1517 1428 1119 874 700 1176 1040 1035 1389 1282 1229 1068 851 933 1112 1183 1133 1186 1161 1187 1097 1078
2145 2070 2072 2241 1996 1932 1899 1807 1680 2237 2808 2448 2335 2256 2138 2054 1969 1880 1648 2336 2100 1828 2220 2007 2067 2174 2471 2317 1917 1836 1519 1505 1628 1552 1220 1114 1068 985 882 1014 1352 1518 1301 2006 2403 2184 1753 2145 1600 1304 1447 1534 1497 1883 2072 2295 2283 1601 2020 1964 1454 1202 1170 1006 742 789 884 682 992 876 956 986 1212 1185 795 1007 1035 889 1000 944 1298 1218 1076 862 1057
2074 2035 1962 1978 1977 1848 1779 1623 1403 1973 2579 2592 2290 2340 2309 2195 2399 1707 1676 2919 1980 1926 2334 1902 2021 2158 2380 1577 1646 2450 1942 1678 1762 1572 1228 1249 1183 1293 1333 1453 1572 1576 1538 2072 2565 1792 1889 1423 1638 1409 1566 1318 1462 1799 2048 2044 2073 2016 2130 1573 1105 912 888 690 553 646 729 874 778 858 966 971 765 792 730 736 715 870 836 856 850 762 722 736 678
1958 1962 1988 1972 1988 1771 1592 1411 1122 905 2915 2371 2129 2042 2006 2004 1932 2238 3300 2858 2438 2236 2041 1955 1945 2185 2314 1918 1975 2046 1916 1762 1875 1764 1389 1300 1220 1384 1599 1588 1806 1812 1714 1895 2511 2270 2146 1775 1717 1926 1378 1023 962 1555 1986 1988 1818 1996 1986 1277 1028 948 749 710 509 520 774 838 864 783 773 780 682 580 609 588 745 708 672 701 789 836 798 750 611
1605 1722 1745 1668 1652 1687 1451 1311 1085 706 2115 1862 1710 1656 1676 1670 1748 1714 2032 2628 2608 3190 2345 2305 2589 2481 2356 2219 1826 2244 2110 2083 1851 1485 1680 1270 1137 1352 1552 1736 1892 1918 1915 2026 1989 2000 1981 1666 1558 1461 1263 1051 967 1137 1648 1847 1472 1513 1320 1189 890 726 622 505 603 702 714 776 766 812 765 760 729 592 547 458 432 396 350 462 543 432 394 389 438
1839 1876 1527 1398 1326 1408 1370 1236 1126 1321 1637 1559 1439 1493 1507 1509 1524 1466 1679 2166 2509 2980 2862 2486 2293 2473 2457 2134 1809 1612 1354 1128 1189 1520 1676 1544 1319 1349 1546 1754 1936 2028 1537 1945 1954 1799 1870 1641 1111 1065 902 889 1083 1171 1742 2191 2074 1642 1410 1066 766 624 514 402 481 444 614 722 810 807 632 695 670 656 488 388 288 296 262 255 250 263 254 271 382
2203 1964 1717 1593 1458 1330 1558 1267 1337 1147 1177 1136 1105 1087 1088 1057 1273 1239 1314 1600 2109 2772 2442 2064 2093 2093 2343 2188 2045 1823 1532 1319 1261 1196 1507 1542 1287 1284 1498 1910 2475 2388 1817 1542 2011 1768 1371 1328 1373 1303 1273 1250 1192 1558 2024 2217 2192 2016 1243 996 713 508 387 267 178 167 191 426 626 825 707 644 604 502 391 293 278 205 206 139 113 21 19 166 386
2262 2066 1855 1596 1356 1364 1320 1271 1192 1205 1167 1062 941 908 857 851 1058 1081 974 1214 1686 2022 2079 1834 1839 1736 1566 1600 1758 1761 1667 1530 1380 1424 1389 1188 1732 1671 1660 2040 2031 2334 2556 1283 2065 1997 1328 1634 1632 1706 1362 1392 1697 1768 1884 2159 2189 2077 1366 1105 728 436 322 271 196 189 148 125 83 86 48 44 4 48 6 24 5 0 1 1 1 1 2 20 289
2138 2065 1857 1570 1209 1075 1206 1147 1087 1021 1083 1046 987 928 909 877 829 910 878 880 1345 1738 1861 1694 1543 1472 1610 1850 1883 1785 1626 1380 1279 1158 1209 1757 2025 1887 1496 1700 2516 2808 2310 2436 2364 2190 1872 1299 1513 1751 1457 1530 1916 2126 2150 1914 2195 2175 1630 1120 854 658 418 298 232 123 103 75 57 41 52 38 8 8 13 2 2 2 7 43 33 8 6 47 140
1958 1968 1906 1712 1322 950 856 997 1157 1118 1096 1034 1023 912 891 899 831 777 800 819 1169 1457 1520 1587 1754 1844 1977 2013 1881 1689 1577 1328 1312 1158 1082 1180 958 1016 1153 1435 1056 2066 1919 1648 2186 2150 1748 1464 1582 1688 1681 2084 2257 2330 2234 2045 2403 2123 1712 1119 872 872 529 585 407 201 122 67 45 13 36 52 33 15 12 17 13 9 14 61 91 63 44 63 59
1838 1794 1726 1602 1375 1070 958 1028 964 1064 1117 1178 1082 966 875 843 804 655 646 1143 902 1307 1451 1620 1728 1807 1820 1621 1137 830 938 1086 1092 970 766 776 653 688 1518 1506 1079 771 1555 1834 1435 1643 1997 1532 1575 1710 1609 2287 2631 2760 2408 2459 2273 2132 1834 865 814 731 636 543 715 481 311 109 52 49 23 41 11 7 14 38 22 28 11 9 55 200 311 251 145
1803 1836 1842 1738 1561 1241 986 890 1054 1079 1094 1096 1145 1157 1112 1004 839 649 497 632 822 742 982 1268 1543 1709 1658 1368 626 15 53 106 641 848 818 803 760 888 1575 1538 1133 882 1157 1592 1909 1578 1726 1652 1446 1400 1704 1621 1641 2399 2992 2572 2290 2287 1564 1104 802 768 633 498 588 643 506 452 191 335 23 58 72 56 28 25 24 8 9 10 134 445 560 588 736
1745 1716 1693 1654 1584 1793 1161 999 1008 1122 1155 1165 1116 1084 1070 1053 1069 942 861 914 1019 1045 1025 893 942 949 706 92 18 11 24 139 237 335 494 502 1019 1758 1869 1807 1346 1317 1203 1257 1196 1846 1480 1504 1484 1744 1380 1538 1674 2399 2338 2230 2713 2101 1678 1697 1390 896 481 520 570 404 445 398 342 394 102 29 82 116 39 20 18 10 4 57 170 401 563 654 739
1732 1620 1571 1560 1549 1488 1246 1214 1157 1165 1178 1173 1152 1107 948 1040 1040 1008 984 1036 968 926 937 1020 1078 1046 1034 846 189 47 46 147 231 339 456 1329 1451 2093 2232 1945 1820 1725 1440 1688 1498 1577 1859 1732 1335 1381 1591 1592 2059 2139 2151 2422 2406 2043 1714 1695 1756 1178 694 952 936 450 444 270 195 124 229 147 83 127 110 48 15 18 9 27 102 180 366 698 733
1500 1376 1396 1350 1381 1466 1270 1200 1257 1213 1220 1251 1247 1095 834 1031 1224 1207 1119 1172 1070 941 902 970 1058 1026 901 805 579 23 14 36 90 223 692 1503 1515 1906 2217 2180 2210 2250 2056 1777 1537 1401 2116 2015 1556 1069 1411 1606 1679 1940 1881 1868 1984 2065 1975 1956 1717 1437 815 632 748 753 379 310 167 46 28 43 156 556 202 71 25 13 25 22 56 119 310 494 704
1298 1367 1353 1477 1445 1458 1404 1409 1360 1331 1320 1321 1241 980 853 912 1016 1252 1256 1306 1244 1167 1111 1121 1124 1113 1000 853 585 152 390 584 524 390 269 1002 1794 1782 2000 2229 2240 2265 2231 2061 2129 1893 2120 1825 1428 980 1441 1648 1400 1862 1737 1740 1696 1552 1654 1628 1602 1506 994 687 766 839 689 569 570 532 364 159 78 202 460 464 148 68 54 57 92 170 575 742 599
1616 1393 1444 1633 1641 1571 1454 1340 1487 1437 1401 1330 1164 987 933 980 1054 1102 1140 1144 1262 1299 1286 1235 1210 1154 1087 890 225 280 488 587 636 201 208 344 1192 1552 1830 2128 2250 2134 2167 2130 2096 1954 1922 1783 1500 1370 1148 1391 1643 1865 1601 1551 1534 1479 1364 1324 1429 1550 1305 678 745 623 695 744 670 582 462 306 150 236 436 757 1066 1080 1378 1248 955 689 586 453 552
1315 1095 1278 1410 1395 1407 1338 1345 1397 1483 1462 1386 1234 1082 987 931 1058 1204 1231 1169 1165 1237 1196 1180 1190 1178 1110 952 410 192 423 546 554 198 96 244 864 1200 1397 1724 1847 2029 2384 2267 2152 2277 2278 2208 1926 1649 1642 1544 1840 1932 1466 1263 1153 1471 1344 1321 1310 1326 1088 830 760 757 842 801 614 630 591 582 442 450 217 232 276 306 248 91 0 0 0 0 212
1401 1070 1216 1275 1214 1310 1338 1363 1427 1291 1330 1400 1423 1429 1336 1040 1099 1176 1270 1309 1293 1278 1241 1194 1244 1257 1211 1090 811 183 328 554 597 370 80 283 474 754 978 859 1498 1640 2215 2611 2423 2120 2140 2229 2194 1406 1889 1422 1697 1755 1294 1210 1586 1483 1407 1268 1131 1082 966 999 979 772 897 796 798 644 632 644 757 773 489 569 443 427 382 164 168 212 122 4 4
1383 1434 1371 1328 1187 1235 1306 1309 1373 1322 1227 1108 1163 1273 1181 1068 1096 1260 1310 1348 1361 1351 1311 1224 1448 1160 1148 1098 974 614 483 667 758 647 515 367 510 622 637 734 950 1107 1803 2589 2592 2490 2200 2157 2096 2346 1849 1469 1478 1580 1579 1426 1463 1368 1412 1303 1242 1110 1057 1036 1030 774 662 860 882 803 786 718 683 709 746 689 822 781 599 398 100 99 148 165 44
1158 1148 1278 1412 1379 1156 1221 1263 1285 1219 1157 1140 1056 1028 1176 1229 1191 1142 1154 1303 1306 1311 1298 1239 1198 1201 1192 1041 898 666 542 656 646 566 516 462 440 606 734 903 1181 1199 1230 1580 2343 2590 2426 2222 2112 1802 1775 1758 1560 1334 1267 1446 1310 1231 1157 1179 1126 973 1092 909 649 586 541 490 686 518 387 497 470 614 704 614 574 612 634 575 603 484 438 451 418
1483 1172 981 1158 1180 1313 1300 1255 1349 1241 1092 1027 951 887 925 1081 1049 1113 1120 1237 1308 1301 1270 1236 1203 1192 1177 1004 786 652 590 530 541 558 526 373 843 834 902 1131 1259 1236 1285 1223 1996 2563 2447 2160 2011 1749 1698 1511 1522 1460 1203 1143 1149 1257 1074 785 808 892 1000 783 695 473 473 450 389 199 405 489 482 482 547 431 392 432 603 627 590 565 639 694 628
1214 1390 1733 1723 1406 1349 1316 1515 1433 1249 1054 1030 923 782 715 1133 1266 1129 1078 1098 1068 1186 1207 1156 1119 1093 1021 887 612 364 398 431 442 519 449 579 1210 1424 1315 1212 1109 1188 1415 1470 1577 2083 2253 2080 1912 1969 1582 1455 1328 1185 1081 991 970 1030 978 927 914 766 698 619 516 496 427 295 169 24 4 0 0 35 154 274 312 336 404 523 527 483 507 459 410
1529 1493 1540 1850 1798 1894 1702 1452 1334 1215 1409 1391 1264 1148 1188 1342 1420 1410 1344 1032 1008 956 842 1043 1071 993 850 780 698 461 794 1835 2066 1856 1347 1459 976 982 1295 1482 1252 1381 1562 1497 1567 1783 1922 2030 1686 1805 1802 1497 1443 1325 1168 981 890 791 554 776 879 801 740 696 604 390 286 0 14 23 10 3 0 0 0 31 45 54 126 287 378 385 262 248 246
1487 1423 1383 1611 1875 2011 2138 1901 1724 1453 1205 964 1335 1417 1496 1407 1260 1240 1316 1273 1264 1212 1071 848 667 821 872 830 820 1925 2569 3276 3672 3833 2959 2777 2450 844 604 1889 1618 1554 1604 1594 1808 1744 1853 1845 1868 1742 1637 1648 1526 1210 1065 985 879 818 737 698 718 698 575 632 575 515 340 209 53 38 15 7 18 28 32 1 0 24 89 118 127 191 220 160 121
1511 1821 1950 1472 1571 1929 2110 1960 1864 1706 1805 1763 2241 2077 1680 1898 1444 1026 1185 1203 1156 1234 1278 1344 1266 1075 1092 1210 1403 1963 3120 4261 4342 3986 3801 3219 3130 2729 2521 2815 2591 1676 1653 1989 2256 2121 1794 1751 1831 1817 1674 1666 1528 1406 1174 919 967 990 949 908 880 769 635 527 448 115 138 11 81 19 7 0 22 50 36 0 5 26 70 43 63 61 101 40 30
997 1046 1186 1448 1496 1582 1544 1540 1682 1614 1896 2603 2393 2091 1579 1202 1253 1206 1010 1008 994 1180 1204 1364 1240 1272 1247 1258 1492 2469 3377 3234 2634 2382 3378 4193 3523 3201 2990 3504 4376 3700 2444 2003 1806 1872 1801 1723 1836 1900 1863 1751 1693 1436 1168 948 952 1128 1225 1286 1146 942 755 634 536 602 420 332 375 307 116 3 0 16 22 7 5 8 25 23 11 12 20 0 94
970 983 968 985 1012 1055 1553 1610 1618 1652 1637 1572 2174 2046 1737 1631 1348 1247 950 1065 999 1209 1089 1204 1190 1187 1229 1336 1696 2401 2411 3179 2489 2058 2494 2965 3604 3532 3683 4079 4945 4428 2947 2330 2220 1847 1630 1718 1860 1991 1905 1731 1513 1314 1153 1096 1075 1216 1267 1202 1138 1064 898 795 734 620 531 437 522 458 332 15 13 2 15 3 4 4 4 5 4 4 8 68 101
692 793 847 880 884 912 938 1429 1586 1807 1841 1864 1925 1868 1839 1890 1808 1506 1150 1024 1046 1058 1211 1094 1174 1204 1201 1425 1595 1778 1593 2160 1695 1533 1626 1979 2253 2604 2654 2484 2721 3830 4550 3201 2664 3416 2535 1876 1946 1854 1642 1431 1269 1187 1174 1151 1213 1287 1311 1272 1164 1066 925 821 764 715 659 579 645 646 527 315 108 1 32 17 0 2 2 1 1 4 7 21 21
265 262 264 244 424 680 762 889 1257 1581 1560 1624 1696 1607 1495 1610 1775 1785 1713 1468 1123 1118 1113 976 1021 1081 2174 1831 1284 1312 1266 1207 1501 1522 1377 1296 1240 1366 1602 1776 1824 1712 2144 2984 3289 3393 3516 2459 2038 1744 1598 1436 1321 1277 1356 1386 1358 1223 1196 1177 1091 887 752 776 796 655 621 570 576 621 608 373 173 14 9 4 0 2 3 17 2 2 0 0 5
87 100 106 282 690 984 1096 1096 1058 1197 1403 1410 1254 1265 1352 1453 1702 1866 1818 1671 1584 1406 1152 962 986 998 1152 1147 1160 1072 1073 1675 2395 2371 2035 1240 988 959 954 1211 1619 1971 2230 2332 2692 3122 3146 3140 3037 2861 2688 2491 2411 2104 1851 1780 1659 1538 1310 964 720 648 675 792 732 568 592 582 574 621 558 431 188 54 7 0 0 2 0 1 4 2 1 6 26
56 106 373 563 695 781 834 869 963 1036 1153 1153 1224 1364 1423 1492 1620 1680 1639 1506 1404 1330 1521 1623 1104 1057 1112 1389 1477 1800 1900 2079 2200 2191 2002 2307 1530 1436 1234 1164 1527 1977 2324 2263 2510 2678 2798 2844 2729 2612 2531 2379 2323 2159 1951 1864 1810 1728 1510 1145 897 839 803 795 725 608 633 660 644 557 459 388 295 218 168 64 0 0 1 1 1 4 10 15 44
34 101 336 342 381 476 434 389 354 376 513 524 576 786 988 1104 1212 1293 1372 1342 1302 1222 1535 1623 1392 1242 1161 1524 1564 1184 1419 1887 2124 2165 2061 1835 1702 1594 1498 1450 1373 1276 1300 1348 1496 1544 1508 1504 1652 1831 1913 1893 1847 1925 2089 2076 1904 1840 1533 1314 885 727 804 872 991 761 605 492 563 491 457 441 367 339 277 157 28 3 2 0 1 12 17 23 4
96 167 282 222 198 251 346 388 373 405 461 434 352 264 397 482 754 1058 1182 1252 1212 1229 1223 1376 1481 1482 1364 1266 1297 1379 1368 1346 1408 1606 1778 1795 1770 1705 1713 1655 1619 1576 1557 1474 1475 1441 1414 1393 1389 1358 1339 1311 1335 1423 1582 1454 1610 1358 1306 1313 1125 980 899 894 914 845 735 623 632 525 482 306 325 218 234 194 29 4 3 2 4 12 13 6 11
Wind_Speed
4 3 2 3 4 4 5 6 6 7 6 6 6 5 5 5 5 7 10 12 10 9 10 10 11 12 15 17 17 17 16 14 13 12 13 16 17 17 21 22 19 16 15 16 16 15 14 13 12 9 9 12 12 7 7 10 11 10 9 9 9 7 4 6 6 4 3 1 1 1 1 2 2 3 3 4 4 4 5 4 4 4 4 3 4
4 2 2 4 3 3 4 6 6 6 6 5 6 6 4 4 6 8 10 10 7 7 8 9 11 12 15 17 17 16 15 13 14 15 15 18 18 17 24 26 22 19 15 13 11 8 12 15 13 10 10 13 2 2 2 5 8 9 8 8 8 6 6 6 7 6 4 3 3 3 2 2 3 3 3 4 4 4 5 4 3 3 3 4 5
2 2 2 3 3 3 5 6 6 6 6 5 5 5 5 7 9 9 9 8 6 7 10 9 11 13 16 18 16 13 14 14 15 16 18 21 20 19 24 29 25 23 20 19 23 21 17 18 16 12 10 12 7 4 3 5 3 5 6 8 7 8 7 2 8 8 4 2 3 4 3 3 3 4 5 4 4 4 5 5 4 3 4 5 6
1 1 2 2 3 3 5 5 6 5 5 5 5 6 7 8 7 7 7 7 4 6 8 11 14 16 17 19 15 13 13 15 17 18 20 20 21 21 23 25 25 24 20 19 22 24 21 18 17 13 18 14 6 6 5 3 3 6 8 8 7 8 6 4 5 11 6 3 4 5 4 3 3 3 4 5 4 4 5 6 5 4 4 6 7
2 0 1 1 2 4 4 5 4 3 4 6 7 6 5 5 4 5 6 5 5 8 8 9 12 15 16 17 14 15 16 17 18 17 17 19 22 24 24 24 23 24 21 22 20 19 19 24 28 26 20 12 6 6 6 5 7 9 10 9 7 7 9 2 5 9 5 2 4 5 5 3 2 3 3 4 5 5 5 5 5 5 5 6 6
6 5 5 2 1 1 1 2 3 3 4 4 6 5 5 5 5 5 6 7 9 8 8 9 12 15 17 15 14 16 16 17 17 16 18 20 22 24 25 24 26 24 21 20 19 14 19 32 33 29 22 15 8 10 11 9 9 9 9 5 8 12 13 4 2 10 8 2 3 5 6 4 3 3 2 3 4 5 5 5 5 6 5 5 5
7 8 6 4 4 5 6 5 2 4 3 3 8 7 7 6 5 6 6 8 7 6 7 8 10 14 15 12 15 16 16 16 15 17 19 20 20 23 25 25 24 23 19 18 23 30 30 31 33 33 28 20 13 10 13 11 8 10 11 10 6 6 12 11 5 4 9 12 6 4 5 5 4 3 2 3 4 5 5 5 5 5 5 4 4
8 8 8 6 7 8 6 6 4 7 6 5 7 6 4 3 4 5 6 6 4 5 5 8 10 12 12 11 16 16 16 15 15 16 19 18 19 21 24 24 24 24 22 21 27 30 35 37 39 35 27 23 17 14 12 11 9 10 13 13 10 9 9 10 9 8 7 10 12 8 5 5 4 3 3 4 5 5 5 5 4 4 4 4 4
6 8 8 8 8 8 7 6 4 6 7 6 7 4 2 1 2 3 7 6 7 6 6 8 9 10 9 13 16 16 16 15 15 17 18 18 18 21 24 24 26 30 30 33 32 29 27 29 31 31 29 24 19 15 12 11 17 14 12 16 12 11 10 11 8 8 8 9 7 12 8 6 3 3 3 5 5 5 5 5 5 3 3 4 4
4 5 7 7 7 7 8 8 5 5 7 6 4 3 3 2 2 3 3 3 7 7 7 7 9 10 10 14 16 16 16 15 15 16 19 18 19 24 28 27 28 30 31 29 28 29 29 30 33 34 34 30 25 19 14 17 18 14 14 12 12 16 14 12 9 6 6 8 8 7 12 7 6 6 5 5 6 6 6 5 4 4 4 5 5
5 5 5 7 8 9 9 8 6 7 6 6 5 4 3 2 3 3 4 3 2 3 6 6 9 12 10 15 15 16 15 14 15 18 21 22 24 27 25 26 26 28 29 28 28 29 30 30 27 25 24 26 26 24 22 22 18 12 12 13 13 17 15 12 8 6 7 8 8 9 11 8 7 6 6 6 6 6 5 4 4 4 5 6 7
6 6 5 7 8 9 9 8 6 8 8 6 4 4 2 3 3 4 2 2 1 1 2 4 8 9 10 11 15 16 17 16 18 22 24 24 26 27 26 22 24 27 27 27 28 29 29 29 28 25 23 23 25 26 24 24 22 18 17 17 16 15 13 12 10 9 11 11 9 10 10 10 7 6 7 7 6 5 4 4 4 5 7 7 7
6 7 6 7 8 9 10 9 7 8 8 5 4 3 3 1 1 1 0 1 2 1 1 3 5 9 10 13 15 14 16 16 21 24 25 24 24 26 22 20 22 26 26 27 29 30 30 30 28 26 26 24 24 24 21 25 29 27 26 24 20 19 16 14 13 12 13 11 9 9 9 10 9 9 7 6 5 4 4 5 5 7 8 8 8
7 7 8 7 8 9 9 9 10 10 8 7 5 5 4 3 2 2 2 1 1 0 1 2 5 8 10 13 13 14 16 17 21 24 24 21 22 20 18 19 21 22 23 24 26 28 30 29 29 29 28 28 27 23 19 21 24 27 25 22 19 18 17 17 15 14 13 12 11 11 10 10 9 9 7 6 5 4 4 5 7 8 8 8 8
7 7 8 8 8 9 9 10 10 10 9 7 6 5 4 2 2 2 4 3 2 1 2 1 5 7 8 10 13 12 14 14 18 21 20 17 17 15 16 18 20 19 19 21 22 25 27 27 29 29 29 29 27 26 25 24 20 24 21 19 17 17 17 17 16 14 14 14 14 12 10 9 8 8 8 7 7 7 7 8 8 9 9 9 9
6 7 8 8 9 10 10 10 10 10 10 6 4 4 4 4 5 3 3 5 5 3 3 0 3 5 8 12 14 13 13 15 18 19 13 14 13 15 17 18 18 18 19 20 21 21 23 25 27 28 29 29 28 28 26 24 27 24 21 17 16 17 15 15 15 15 14 12 13 14 10 8 8 9 10 9 8 8 10 8 7 9 9 8 7
6 7 8 8 9 10 10 10 11 10 9 7 5 4 4 3 4 4 3 2 4 4 4 1 4 6 8 10 13 13 15 18 16 19 15 15 17 16 16 18 17 15 17 19 19 20 22 23 24 24 25 26 25 26 26 24 24 21 18 16 13 12 13 14 14 15 12 15 16 10 11 10 9 10 11 10 9 9 7 9 9 9 8 7 7
8 7 8 9 9 10 11 11 11 9 7 6 6 6 6 5 5 3 4 2 3 3 4 4 2 4 9 10 12 14 15 15 13 18 18 18 18 16 17 17 14 14 16 17 17 18 18 19 21 22 23 24 23 25 24 23 24 22 19 17 13 12 14 15 15 17 16 18 15 11 13 11 10 8 5 9 9 6 8 9 8 8 7 9 8
8 8 8 8 8 9 10 11 11 10 9 8 7 6 5 5 6 5 4 3 4 4 4 4 4 5 7 10 11 14 14 11 14 16 18 19 18 16 16 16 14 13 14 14 14 16 16 17 19 20 22 22 21 26 21 22 22 23 21 17 14 13 13 15 15 14 14 12 11 11 11 11 9 9 9 10 9 8 9 9 7 7 8 8 10
8 8 7 6 7 8 9 10 11 10 10 8 7 7 7 8 7 6 5 4 2 3 4 4 3 6 6 9 11 13 14 12 12 15 16 17 18 17 17 19 17 15 13 11 11 13 14 16 18 18 20 20 21 22 19 18 19 21 19 15 12 11 11 12 12 12 12 11 11 11 9 9 10 10 10 10 9 9 8 7 7 6 7 8 9
9 8 7 6 6 8 9 10 11 10 10 8 9 9 7 8 9 8 7 6 5 4 5 5 4 6 6 8 9 12 13 12 11 11 12 12 16 16 17 16 17 16 14 11 12 12 13 14 16 15 16 18 19 19 17 16 16 17 16 14 12 10 9 9 10 10 9 9 9 9 8 8 7 7 7 7 7 6 7 7 7 7 8 9 8
10 10 10 8 7 7 9 10 9 9 10 9 9 10 10 9 9 8 8 7 6 4 3 4 3 5 4 5 6 8 10 10 9 9 9 10 15 16 16 15 14 16 13 11 10 10 11 12 13 13 13 16 17 16 15 14 14 14 13 12 10 8 7 7 6 6 6 6 6 7 8 8 7 7 6 6 6 6 7 7 8 8 9 9 9
11 10 10 9 8 8 8 8 9 9 9 9 9 10 10 10 10 10 10 8 6 5 6 5 4 5 6 4 6 7 9 8 9 7 6 7 8 12 13 12 13 13 13 11 9 8 9 9 10 10 12 13 13 13 13 13 13 14 14 11 9 7 7 6 6 5 4 4 4 5 5 5 6 6 6 5 6 6 7 7 7 8 8 8 7
11 11 12 11 9 7 8 8 8 9 8 9 9 10 10 11 11 10 10 9 8 7 6 5 5 4 6 4 5 6 6 7 8 6 5 7 5 9 12 10 8 11 11 9 9 9 9 8 8 8 11 11 11 11 11 10 10 13 10 10 8 7 7 7 6 5 5 6 6 6 6 6 6 6 6 6 8 7 8 8 8 nan nan 7 7
9 9 10 10 10 8 7 8 8 8 8 9 9 9 10 11 11 11 11 11 9 7 6 6 4 5 7 5 3 2 4 5 4 4 5 5 3 5 8 6 7 8 8 6 8 8 9 7 7 8 9 10 9 9 9 9 10 10 10 8 9 7 6 6 6 5 4 3 nan nan nan nan nan nan nan nan nan nan nan nan nan nan nan nan 6
9 8 8 9 9 8 7 7 9 9 9 8 9 10 10 10 11 11 11 10 10 8 8 8 7 7 6 6 5 3 3 2 3 3 4 2 3 4 6 5 3 5 5 5 7 6 7 7 7 8 8 8 8 8 7 7 7 10 10 8 8 8 6 6 7 6 5 nan nan nan nan nan nan nan nan nan nan nan nan nan nan nan nan nan 7
9 9 10 9 9 8 7 7 8 9 10 10 9 10 11 11 11 11 11 10 9 9 9 9 8 8 8 6 6 4 3 2 1 4 3 4 4 3 1 6 5 2 3 5 6 7 6 6 5 6 7 6 7 8 7 5 6 8 8 7 7 9 7 6 8 8 8 nan nan nan nan nan nan nan nan nan nan nan nan nan nan nan nan nan nan
9 9 9 8 8 7 8 7 8 8 10 10 10 11 12 11 11 11 11 11 10 10 10 9 9 9 9 9 8 7 4 2 1 3 3 4 5 2 1 0 1 5 4 4 4 4 3 3 4 5 6 4 4 6 7 5 4 6 5 5 6 5 6 5 6 8 8 8 nan nan nan nan nan nan nan nan nan nan nan nan nan 8 8 8 9
9 10 9 9 8 7 7 8 8 9 9 9 10 11 13 12 10 10 10 10 11 10 11 10 10 9 9 8 5 nan nan 4 3 3 3 3 4 2 2 3 3 2 2 3 3 2 2 3 1 2 2 1 1 3 3 3 5 5 2 3 3 3 4 5 4 6 7 7 7 7 nan nan nan nan nan nan nan nan nan nan 8 9 8 8 8
8 10 10 9 9 8 8 9 9 9 8 9 9 10 12 12 10 9 9 10 11 12 11 11 10 10 9 nan nan nan nan 5 2 2 1 2 3 2 1 1 5 4 3 1 4 1 1 2 1 2 1 1 2 2 2 1 6 5 3 2 2 1 4 4 3 3 4 4 4 5 7 nan nan 7 nan nan nan nan nan nan 7 7 7 7 8
8 9 10 10 10 9 9 9 9 8 8 8 9 10 11 11 11 10 11 12 11 11 11 11 11 10 9 9 8 nan nan 6 4 3 2 2 0 0 1 3 3 5 5 3 2 2 2 0 1 3 3 2 3 5 4 4 6 6 4 3 2 5 6 4 3 2 4 4 5 4 4 5 nan 8 7 nan nan nan nan nan 7 7 7 8 8
8 8 9 9 10 9 8 7 7 7 7 7 8 9 11 11 11 11 12 13 12 10 10 12 11 10 9 9 9 nan nan nan nan 6 5 4 5 3 2 2 3 4 5 4 4 1 3 2 2 3 3 3 4 7 6 6 7 9 6 6 7 10 7 6 10 8 5 4 4 nan nan nan 1 1 6 nan nan nan nan nan nan 8 9 8 9
7 8 8 7 8 9 9 8 7 7 8 8 9 10 11 11 11 12 13 14 13 11 11 10 11 10 9 9 8 8 8 7 5 4 5 6 7 6 4 4 3 4 6 4 3 1 3 4 5 4 3 3 3 5 7 7 7 6 7 7 9 9 9 7 6 10 9 7 5 4 4 3 nan 4 4 3 5 nan nan nan nan 8 7 10 11
10 9 8 8 9 8 8 8 8 8 9 9 9 11 11 11 11 12 13 14 13 11 12 11 9 10 10 9 8 8 8 7 6 5 6 9 8 7 6 6 4 4 6 7 3 3 0 4 4 5 4 3 4 3 8 9 9 8 10 11 11 10 10 8 7 7 12 11 11 10 9 9 9 8 8 9 9 9 11 11 12 14 14 14 15
11 10 10 10 9 8 7 7 8 9 10 10 10 11 10 10 11 12 13 13 13 12 11 10 9 10 10 10 8 9 9 8 6 5 nan 10 9 8 7 7 5 4 6 7 7 3 2 3 3 5 5 5 5 6 9 10 10 10 11 11 12 11 11 11 10 9 15 17 16 16 15 13 13 13 14 14 16 16 16 nan nan nan nan nan 19
11 13 12 11 10 8 7 8 9 10 12 14 14 12 11 11 11 11 12 12 12 12 12 12 11 11 10 10 8 8 9 8 7 6 nan 9 10 9 8 7 6 4 5 7 7 7 6 3 3 4 4 6 6 10 12 14 14 13 13 14 13 14 14 14 14 14 16 21 21 20 19 19 19 19 18 18 19 20 19 19 19 20 21 nan nan
13 14 14 12 10 8 7 8 11 12 13 13 15 15 15 14 12 11 11 11 12 12 12 12 12 13 11 10 9 9 9 9 8 7 7 10 10 11 9 9 8 6 8 9 8 9 9 6 4 5 6 6 7 10 11 14 16 15 14 15 15 15 17 17 16 16 20 22 22 23 23 23 23 23 23 22 22 21 21 21 nan nan 24 25 nan
13 15 14 12 10 8 6 8 10 12 12 12 12 12 14 16 16 13 12 11 11 11 12 12 13 14 13 11 10 10 10 10 8 7 8 9 12 12 11 11 11 10 9 9 10 10 9 8 8 8 8 8 9 10 10 13 16 16 15 15 16 16 18 20 18 17 15 14 13 15 20 22 25 26 25 25 24 23 23 23 23 23 25 25 26
10 12 12 11 9 7 6 8 9 10 9 10 11 12 14 15 15 16 14 13 12 11 11 12 13 14 14 13 12 12 11 11 9 8 9 9 13 13 13 13 13 13 11 9 12 11 10 11 11 9 11 11 11 12 11 13 15 16 17 17 17 16 16 18 22 20 19 21 24 27 26 25 27 24 27 26 27 26 26 25 24 26 26 26 27
13 13 13 11 8 6 8 10 10 11 11 10 11 13 15 15 15 14 15 16 15 13 11 11 12 13 14 14 13 13 12 11 10 9 10 10 13 14 13 15 15 14 12 11 11 11 10 11 12 11 12 13 13 15 16 16 18 16 15 16 18 18 18 17 19 20 18 18 18 nan nan nan nan nan 26 27 28 28 28 27 28 29 31 30 31
17 14 12 12 11 13 14 12 12 13 13 11 12 14 15 16 17 16 16 16 15 14 13 12 13 14 14 14 14 13 13 11 10 11 13 13 15 14 14 16 16 15 12 14 15 13 12 13 13 13 14 14 13 15 16 16 16 17 19 20 20 20 20 20 19 18 18 nan nan nan nan nan nan nan nan nan nan nan 26 28 30 33 34 34 36
13 10 9 11 13 15 15 14 13 14 14 14 12 9 13 17 19 20 20 19 18 17 16 15 14 14 14 15 15 12 12 11 11 12 13 13 15 15 16 18 18 16 15 16 16 15 15 14 12 14 14 13 13 14 15 14 18 23 24 23 23 22 22 21 21 20 22 23 nan nan nan nan nan nan nan nan nan nan nan 27 28 32 35 37 39
10 10 11 12 13 14 11 12 13 15 15 15 12 13 13 16 19 20 20 18 19 18 17 16 16 18 20 21 20 17 14 12 12 7 7 10 12 14 16 20 20 19 17 17 16 18 17 15 15 15 14 13 12 15 15 18 19 22 24 23 24 24 23 24 22 24 23 nan nan nan nan nan nan nan nan nan nan nan nan nan nan nan 39 nan nan
7 8 10 9 10 10 10 10 12 14 16 15 14 15 19 18 19 20 19 18 17 17 18 19 22 23 23 23 22 22 22 22 22 21 18 12 10 12 15 17 20 20 21 21 19 19 19 18 18 16 17 14 14 16 17 20 19 22 23 24 25 25 24 22 24 25 26 27 29 29 29 nan nan nan nan nan nan nan nan nan nan nan nan nan nan
8 9 8 8 9 9 9 9 11 12 14 16 15 20 22 20 18 18 20 19 19 19 20 21 22 22 24 24 24 23 22 25 25 24 23 22 19 16 16 17 16 15 18 19 21 21 21 20 20 19 19 17 17 16 19 20 23 23 24 23 23 23 23 24 26 28 29 29 32 32 32 nan nan nan nan nan nan nan nan nan nan nan nan nan 46
12 11 10 11 10 10 10 10 9 14 18 22 22 23 23 23 21 21 22 21 21 21 21 22 22 23 24 24 26 24 22 23 24 24 25 24 23 22 22 21 20 17 17 19 18 20 23 21 21 19 18 21 19 20 21 25 26 24 24 23 24 24 23 22 27 30 30 28 32 34 33 31 30 nan nan nan nan nan nan nan nan nan nan nan nan
16 15 14 14 14 15 14 14 17 20 20 22 21 22 22 22 21 20 21 22 22 22 23 24 26 27 27 27 26 24 23 23 24 25 25 24 25 24 24 23 22 20 20 20 21 21 22 22 20 18 20 22 20 25 27 25 24 25 27 27 28 26 28 30 32 32 31 28 32 34 33 33 30 nan nan nan nan nan nan nan nan nan nan nan nan
nan 19 19 19 20 20 20 21 24 23 23 23 23 22 22 20 18 19 21 22 23 24 25 28 30 27 24 27 27 25 25 24 22 22 25 27 25 24 23 23 23 23 21 24 28 29 27 25 23 23 23 25 24 32 34 29 26 27 30 30 32 33 34 32 31 31 31 31 30 33 37 34 32 nan nan nan nan nan nan nan nan nan nan nan nan
nan 23 23 23 23 24 26 26 27 26 26 24 24 25 24 23 20 20 21 23 24 25 27 30 30 27 28 30 30 28 28 27 26 25 24 27 28 27 26 26 26 25 23 27 31 32 30 27 25 23 22 26 37 43 36 31 29 32 32 32 32 35 34 34 33 34 32 34 31 33 39 38 33 36 38 nan nan nan nan nan nan nan nan nan nan
nan 25 26 27 27 27 28 28 27 28 27 27 27 27 25 24 23 22 23 24 24 24 26 27 27 29 29 26 26 29 30 29 30 30 30 29 29 29 29 28 27 25 25 30 31 29 28 28 28 26 27 31 34 35 33 31 34 37 35 31 33 36 33 34 36 35 35 33 32 34 38 37 37 36 40 37 nan nan nan nan nan nan nan nan nan
nan 26 28 30 29 30 31 30 33 32 30 30 31 29 29 29 26 25 24 25 26 26 27 27 26 28 31 32 31 30 29 30 33 32 31 30 30 30 30 30 28 27 28 32 32 32 31 32 31 31 31 34 36 35 32 31 32 33 28 29 35 35 33 33 36 40 37 29 32 35 38 37 38 35 35 36 nan nan nan nan nan nan nan nan nan
Wind_Direction
298 323 344 32 29 16 26 36 30 30 358 2 354 9 9 9 24 28 32 29 22 0 356 358 8 10 16 21 21 19 22 17 8 10 9 18 20 21 32 27 22 17 11 18 22 30 31 27 31 31 55 74 42 26 22 20 22 33 42 46 44 40 73 95 98 96 86 80 116 148 193 208 197 181 172 179 175 148 108 91 89 93 90 84 72
301 321 2 68 49 25 29 38 37 28 359 5 350 352 6 9 22 18 19 18 6 349 347 13 17 19 26 28 24 23 18 13 13 17 25 31 34 27 31 30 28 25 20 10 7 359 44 43 33 47 67 77 107 227 75 48 36 44 52 51 60 52 57 74 90 80 94 106 128 141 163 209 203 177 174 172 170 155 132 114 105 97 86 72 61
286 339 15 61 66 34 44 36 37 25 354 5 333 353 359 19 22 3 12 9 3 355 344 13 26 30 34 35 36 28 22 24 29 34 36 38 37 28 23 34 36 36 38 26 7 3 24 42 41 25 49 76 46 341 159 147 81 67 70 57 37 50 50 91 109 107 82 125 141 144 165 193 197 180 167 170 168 157 144 135 122 103 89 74 64
316 63 22 42 69 40 50 42 39 30 348 354 342 2 15 27 12 341 355 4 338 352 351 5 25 36 42 44 41 41 43 46 45 41 38 40 42 38 32 31 40 44 48 48 28 9 14 33 50 33 41 51 46 359 34 92 124 112 108 90 53 54 51 336 120 107 109 141 147 148 162 191 181 175 166 163 158 153 146 140 130 108 87 81 68
269 172 314 22 73 94 80 56 40 23 12 8 2 7 12 14 332 328 344 352 346 -0 350 8 30 47 51 49 44 48 47 46 44 39 37 40 40 38 37 36 37 45 51 48 36 16 28 33 38 39 45 55 69 85 83 84 86 99 109 106 105 87 83 323 72 81 81 133 149 148 153 172 171 168 165 157 146 142 139 129 121 104 89 79 73
254 220 236 274 57 55 69 37 308 347 24 336 343 344 344 344 355 326 359 4 12 350 345 6 30 50 56 51 48 50 47 42 36 33 34 40 39 38 39 36 35 38 46 57 53 56 38 33 37 43 46 54 79 108 94 84 85 102 107 124 123 139 122 110 50 124 118 117 152 151 149 159 173 174 142 135 137 132 123 110 95 92 88 79 76
229 222 225 214 198 190 189 173 214 290 296 295 292 290 297 340 356 359 8 6 17 350 354 16 42 52 53 53 57 53 49 46 37 33 36 41 40 40 40 38 37 38 40 43 44 43 35 37 48 47 45 50 67 96 105 101 111 119 104 89 106 96 116 126 155 138 147 133 142 150 149 149 152 143 124 102 100 107 108 101 93 92 86 77 69
218 213 205 207 206 196 196 181 214 270 276 258 264 274 265 310 30 17 354 9 14 44 14 39 49 62 63 58 58 56 57 50 42 40 42 42 40 39 44 37 36 34 30 39 44 41 36 33 36 41 49 55 59 72 96 114 104 84 83 93 94 101 129 150 122 130 141 149 145 132 138 130 127 127 99 88 79 83 91 93 99 85 80 73 69
227 207 205 209 207 198 196 195 206 263 258 250 269 273 281 24 86 56 356 357 3 22 41 52 63 68 70 65 59 57 57 50 41 40 44 42 39 39 34 29 36 37 30 32 36 45 49 47 49 52 55 57 62 74 88 75 70 65 65 71 96 110 111 105 78 94 120 136 142 123 115 90 89 89 84 85 82 82 77 80 92 84 71 74 73
251 221 214 223 220 213 196 192 207 233 266 261 262 251 278 321 54 85 52 335 343 358 33 45 57 65 64 64 66 61 58 52 41 39 43 43 37 32 26 28 32 36 39 41 43 45 48 49 49 50 52 52 52 60 72 57 54 61 68 82 99 108 101 94 96 89 104 121 123 108 99 83 70 70 68 76 81 81 81 82 87 87 75 71 65
244 237 222 226 227 225 211 202 228 233 250 251 252 254 264 271 338 64 83 46 359 1 17 39 67 74 62 67 65 64 64 55 41 40 41 36 32 29 26 32 31 37 38 41 44 47 51 53 53 54 56 57 51 44 42 45 55 55 70 83 89 89 93 97 102 103 94 100 97 82 82 76 72 67 65 67 75 84 83 83 77 72 69 63 58
242 235 229 228 234 232 222 213 215 249 245 249 249 250 297 319 359 33 101 163 189 42 336 31 77 91 80 71 64 62 60 49 38 37 39 35 32 27 32 35 32 36 36 38 44 48 53 56 56 60 65 67 61 57 49 44 57 60 60 71 77 79 80 86 91 96 93 92 84 81 78 76 69 57 58 61 68 76 97 91 66 59 61 57 50
244 242 235 227 233 236 230 212 225 249 255 261 263 262 250 289 355 146 171 175 184 246 25 31 70 90 89 84 83 65 56 45 39 40 40 36 33 34 36 39 36 36 34 33 40 45 49 52 55 57 62 68 70 65 52 47 48 54 56 63 71 71 81 87 87 84 87 91 90 85 87 84 75 68 64 62 65 80 84 81 60 51 53 55 52
249 247 239 237 228 232 230 219 225 247 250 252 253 250 240 213 181 189 209 180 188 100 43 42 76 68 80 91 85 78 56 43 44 46 43 36 34 38 43 45 42 40 37 36 38 42 47 48 52 55 59 63 63 66 64 64 58 52 53 62 70 79 81 83 84 85 88 87 87 87 82 82 80 78 73 69 72 72 77 72 57 47 49 52 54
253 251 247 237 236 237 229 226 232 243 248 248 253 236 231 192 157 187 165 183 198 136 86 30 68 57 63 76 80 74 62 53 49 51 47 35 34 41 51 50 47 44 45 47 44 43 47 48 51 54 59 62 66 67 69 66 70 59 58 64 71 72 70 71 81 88 88 87 87 82 82 82 83 81 70 67 60 50 52 57 53 47 46 50 52
257 252 241 237 233 235 231 227 229 239 257 259 246 229 224 184 151 152 203 161 191 157 120 79 66 52 79 75 76 63 67 53 54 60 48 29 42 53 57 59 55 47 45 50 51 50 49 51 53 54 57 59 63 67 69 67 67 60 53 56 73 78 79 77 79 76 80 89 94 92 78 70 67 71 64 59 55 48 46 51 46 41 48 48 46
250 247 241 237 229 228 230 228 230 232 245 254 247 220 216 195 155 161 207 192 174 170 168 158 73 46 60 86 87 74 57 54 58 60 56 51 57 56 56 59 59 52 49 51 50 52 52 54 55 57 60 62 64 68 68 65 69 69 66 60 66 79 76 71 71 70 73 80 78 80 75 62 56 59 62 56 45 41 29 42 44 45 40 41 39
236 238 234 232 228 222 225 225 230 229 237 241 238 216 198 179 157 166 158 180 198 186 164 149 87 52 55 71 65 67 66 58 54 64 59 54 62 58 51 49 53 55 49 45 48 51 52 52 57 61 62 63 70 69 68 64 69 71 71 70 63 74 71 75 76 72 57 55 56 56 60 54 56 53 58 72 54 44 42 37 40 41 33 36 23
235 233 233 231 230 225 223 224 229 230 225 230 226 217 199 178 168 170 147 172 207 169 156 121 148 103 69 75 76 72 61 58 59 65 71 63 67 63 59 51 48 47 42 39 45 47 50 53 55 61 64 64 62 70 67 61 65 68 60 56 57 66 76 71 72 72 73 69 59 56 52 47 39 37 35 45 41 32 44 45 28 31 36 33 26
235 232 231 232 232 230 229 226 230 227 224 220 216 210 197 184 181 168 182 209 211 188 145 135 111 109 95 97 95 84 77 73 53 56 57 57 73 67 57 59 55 50 45 44 49 41 46 55 58 58 63 67 68 72 68 61 64 70 67 45 44 55 61 67 71 71 66 62 54 55 57 47 43 44 39 41 39 35 25 37 30 26 37 38 41
226 230 226 222 224 229 233 233 230 226 224 218 210 207 194 179 182 185 184 193 199 179 179 132 124 95 122 119 108 93 95 81 70 50 49 47 66 64 70 60 57 53 51 47 48 41 44 47 56 58 60 67 68 69 70 66 59 65 60 36 32 36 46 54 64 64 57 49 42 42 40 37 35 34 32 33 28 27 18 23 21 30 30 33 44
217 221 220 220 222 226 232 235 235 229 224 224 215 205 192 186 184 181 178 187 178 181 144 126 120 117 105 103 97 106 107 104 86 65 58 34 49 71 71 67 70 66 54 47 48 51 49 49 52 58 59 65 68 71 72 70 60 61 54 31 25 18 22 29 36 50 59 64 46 36 30 22 22 21 23 23 22 22 19 31 28 32 32 37 43
221 218 221 218 215 222 235 239 235 230 227 225 220 212 195 187 185 181 177 176 172 163 158 155 141 132 125 102 79 69 78 89 93 75 54 59 58 70 78 63 54 69 59 51 55 63 67 61 53 60 65 69 72 74 73 72 56 48 25 27 23 12 8 14 14 13 20 27 31 40 34 41 41 40 38 38 27 26 35 36 35 34 35 39 38
215 217 215 215 214 215 222 230 233 232 229 227 222 216 197 193 195 188 173 169 175 176 169 155 147 123 133 117 89 82 84 81 87 65 54 70 45 76 91 81 68 62 70 68 62 61 61 63 67 70 75 73 76 74 73 74 67 18 30 18 21 13 11 12 7 10 19 15 19 26 31 33 35 36 31 43 31 25 31 37 37 nan nan 43 44
210 213 211 211 211 211 218 227 226 225 227 229 225 220 204 194 196 190 181 178 175 175 167 154 160 141 130 133 112 107 84 73 69 73 88 82 67 95 96 84 74 83 82 81 75 71 62 62 69 78 79 76 75 76 73 76 79 28 15 22 7 12 6 6 357 353 3 13 nan nan nan nan nan nan nan nan nan nan nan nan nan nan nan nan 46
211 210 212 212 210 205 204 212 223 223 220 224 230 227 218 204 200 195 192 182 182 180 169 171 182 154 156 154 159 151 113 85 68 77 89 96 110 82 107 128 103 86 97 93 85 82 80 76 69 73 83 91 90 87 82 81 85 12 5 25 20 14 12 2 348 345 346 nan nan nan nan nan nan nan nan nan nan nan nan nan nan nan nan nan 43
199 199 207 211 208 207 200 205 216 219 219 215 220 227 223 212 203 200 201 198 194 193 185 183 182 167 165 163 157 156 127 116 43 79 89 88 82 93 104 122 144 133 124 105 104 65 70 87 71 70 80 93 106 101 92 88 67 359 1 32 37 11 16 15 358 352 351 nan nan nan nan nan nan nan nan nan nan nan nan nan nan nan nan nan nan
195 197 203 214 214 213 212 205 211 218 221 221 221 227 226 219 205 202 199 208 201 202 198 198 188 184 175 174 178 158 167 169 119 100 99 90 85 100 250 217 127 138 158 144 132 117 82 89 105 81 76 76 102 105 93 88 89 19 5 42 39 23 5 9 10 1 4 1 nan nan nan nan nan nan nan nan nan nan nan nan nan 22 24 25 27
201 207 208 215 214 218 218 212 209 212 218 222 226 230 234 228 216 207 197 204 216 211 212 214 203 196 187 180 182 nan nan 189 173 147 119 120 104 99 353 13 310 251 164 152 126 122 149 116 108 120 107 170 219 122 111 67 54 33 54 50 48 40 356 351 359 0 7 12 16 10 nan nan nan nan nan nan nan nan nan nan 16 15 11 14 15
211 209 215 215 216 216 221 218 213 212 214 218 225 231 238 235 227 221 219 219 218 218 220 225 217 214 202 nan nan nan nan 204 177 160 204 112 124 120 43 325 293 312 336 353 125 102 159 147 201 291 189 196 254 241 256 279 343 337 6 4 1 2 334 322 329 344 351 355 347 358 10 nan nan 28 nan nan nan nan nan nan 17 12 10 5 11
212 208 206 208 214 215 223 222 217 211 214 215 224 231 240 239 236 232 228 230 225 215 220 231 226 227 216 211 207 nan nan 197 205 212 233 264 311 223 176 256 285 295 315 301 244 193 288 286 187 272 291 310 305 293 290 287 303 307 306 308 297 295 284 233 243 331 334 328 338 344 358 30 nan 16 28 nan nan nan nan nan 16 17 13 11 12
213 211 207 204 208 212 220 222 217 215 215 215 224 234 241 243 244 243 238 239 234 227 218 228 234 235 230 221 222 nan nan nan nan 225 232 244 259 278 266 273 270 288 293 297 312 4 262 261 282 269 298 318 327 312 312 308 304 301 303 300 298 292 271 253 229 227 262 312 332 nan nan nan 334 350 25 nan nan nan nan nan nan 14 20 7 5
220 211 210 207 209 215 216 221 222 223 225 221 227 237 244 246 248 251 248 248 246 236 235 230 236 241 241 237 229 232 238 227 213 209 260 267 271 281 277 286 308 285 298 310 324 314 248 264 277 286 311 317 301 317 305 299 292 288 288 287 280 276 280 269 254 228 237 255 277 288 290 280 nan 317 300 313 359 nan nan nan nan 11 319 314 325
237 221 220 216 215 211 210 213 220 229 235 234 231 236 243 250 252 253 255 256 255 249 245 243 240 247 250 249 241 235 238 235 220 236 265 272 282 289 293 301 313 312 301 303 317 287 191 249 266 280 292 308 281 289 301 299 292 287 273 275 272 272 279 280 265 253 238 250 253 253 264 267 262 258 268 271 270 281 286 283 283 286 289 289 290
232 231 219 212 206 209 206 218 225 228 234 236 234 236 243 255 260 259 260 263 265 265 261 256 251 251 252 254 252 252 251 250 242 243 nan 275 280 291 294 285 303 304 297 303 287 287 255 222 266 283 288 287 289 294 276 277 279 279 278 273 275 275 276 279 278 273 254 256 255 255 250 253 264 267 271 270 272 269 266 nan nan nan nan nan 292
232 233 224 208 199 207 205 212 224 225 225 227 229 235 244 253 259 263 264 267 271 272 273 269 264 260 261 258 256 256 257 258 252 245 nan 271 284 289 289 286 287 298 290 289 296 286 276 300 233 273 286 275 251 263 267 263 264 262 267 269 267 271 275 276 279 278 268 264 263 262 262 258 257 259 262 270 274 275 275 274 276 280 282 nan nan
232 236 227 213 197 201 210 237 239 239 239 241 240 237 234 239 251 258 261 265 271 275 277 275 275 273 270 272 271 267 262 265 256 253 257 275 280 283 292 289 299 284 268 287 294 287 289 308 275 249 260 247 249 263 270 271 266 265 266 271 271 272 276 280 281 276 270 265 263 263 261 261 263 264 265 265 267 273 276 278 nan nan 284 286 nan
215 233 232 218 201 195 207 233 244 244 241 245 250 251 248 244 243 244 250 259 266 272 275 276 276 278 281 283 282 280 277 278 275 271 267 278 284 290 292 289 288 279 272 267 278 289 297 303 297 276 265 272 253 254 265 272 275 271 273 273 271 271 279 284 277 276 273 272 275 276 273 271 267 266 268 272 272 272 275 278 280 280 283 286 288
240 230 232 225 204 209 240 248 249 251 251 250 252 253 252 249 246 247 248 252 259 263 268 275 278 280 283 283 282 282 283 283 284 284 283 277 282 292 297 295 286 283 281 283 282 289 293 280 256 258 267 256 259 263 254 269 270 276 283 283 273 267 269 279 285 281 280 278 276 276 279 280 278 277 271 271 273 274 276 278 280 283 283 283 285
251 241 238 237 223 237 247 248 246 245 242 237 239 245 251 254 253 254 257 259 259 257 257 264 272 277 281 283 282 281 283 283 285 284 284 288 284 286 290 286 286 286 287 280 279 284 282 274 264 267 259 260 251 248 254 265 271 268 273 271 280 280 277 274 282 287 284 284 283 nan nan nan nan nan 270 269 269 272 275 277 278 281 281 282 282
251 242 243 245 238 233 242 248 245 247 246 241 240 245 252 254 257 257 259 261 265 263 262 260 263 270 271 275 276 278 281 294 305 299 294 294 286 286 282 285 287 290 288 277 280 281 271 268 266 259 267 267 266 269 277 276 290 284 277 269 269 275 278 280 275 274 279 nan nan nan nan nan nan nan nan nan nan nan 275 277 280 279 280 282 284
271 274 251 238 239 236 239 242 247 247 248 247 250 260 256 253 254 253 250 250 253 256 259 261 265 266 267 266 267 291 299 302 306 310 312 312 298 288 284 285 289 292 290 286 289 292 289 287 287 282 282 287 291 294 296 295 283 277 282 282 283 283 282 280 280 272 274 276 nan nan nan nan nan nan nan nan nan nan nan 280 282 284 282 281 282
244 247 249 245 247 241 230 237 241 243 247 252 264 268 265 256 252 252 253 251 254 254 253 256 261 263 260 259 258 250 250 259 266 285 301 303 304 303 298 297 297 296 289 288 288 287 290 293 286 284 289 293 296 296 299 293 292 294 294 293 291 293 296 293 289 279 281 nan nan nan nan nan nan nan nan nan nan nan nan nan nan nan 282 nan nan
237 248 250 252 251 261 273 271 259 252 249 248 256 263 262 257 250 249 251 253 252 252 255 257 257 256 255 255 254 255 260 264 262 258 256 268 288 297 298 301 300 305 297 291 286 282 285 288 287 295 293 295 294 293 288 285 292 286 291 296 301 302 299 298 290 291 294 293 286 282 279 nan nan nan nan nan nan nan nan nan nan nan nan nan nan
261 253 256 257 253 249 258 264 262 262 256 245 259 259 258 256 251 250 251 253 255 256 258 260 259 256 255 254 255 255 254 256 259 262 260 258 256 268 277 271 274 290 295 301 296 293 292 294 295 296 300 296 291 293 292 290 286 289 290 296 300 302 299 298 294 286 294 295 286 283 284 nan nan nan nan nan nan nan nan nan nan nan nan nan 286
265 266 261 262 263 263 260 263 261 259 257 239 244 251 256 256 249 244 246 246 248 249 253 258 258 257 257 260 261 258 257 257 259 260 262 262 261 260 263 267 270 273 284 292 295 298 295 293 294 296 297 290 292 291 292 282 289 298 300 302 299 297 299 296 286 289 292 297 293 288 283 284 284 nan nan nan nan nan nan nan nan nan nan nan nan
273 272 270 267 267 266 265 267 269 266 257 247 250 249 247 248 245 248 248 249 250 249 251 253 253 253 256 261 264 267 263 263 265 268 267 266 262 262 266 269 268 270 268 270 277 281 282 282 285 288 283 286 285 280 286 294 299 302 305 300 302 297 282 273 276 284 291 291 292 288 288 291 290 nan nan nan nan nan nan nan nan nan nan nan nan
nan 270 268 269 266 266 267 270 274 270 265 256 256 254 250 247 243 253 253 253 252 248 247 247 250 253 257 261 262 261 259 260 262 271 272 267 264 267 269 268 268 268 269 265 264 264 268 273 274 275 275 278 283 275 274 285 294 289 280 278 283 286 289 289 289 294 295 295 293 287 289 293 292 nan nan nan nan nan nan nan nan nan nan nan nan
nan 266 268 268 267 267 269 271 273 272 269 262 260 259 256 251 251 256 259 263 260 254 253 258 261 258 252 253 254 255 255 257 259 264 264 268 267 269 271 271 270 268 267 264 263 265 270 273 272 271 270 268 268 281 296 304 294 287 286 290 296 294 294 294 289 291 296 295 290 287 290 293 295 292 288 nan nan nan nan nan nan nan nan nan nan
nan 269 271 270 267 266 270 273 275 274 273 268 261 255 254 252 252 258 260 265 266 265 259 257 256 255 253 251 255 256 257 257 252 248 246 251 261 265 267 268 269 270 269 268 269 267 266 268 267 263 262 262 275 283 293 303 301 293 294 301 298 295 298 297 294 292 288 293 288 291 288 292 292 291 288 286 nan nan nan nan nan nan nan nan nan
nan 272 271 272 270 268 267 267 271 270 270 269 265 263 259 255 256 260 260 264 269 270 266 262 256 256 256 254 257 255 255 254 251 252 252 255 261 262 263 265 267 269 269 271 274 272 269 268 267 268 267 269 273 277 286 300 298 292 291 290 286 296 298 296 292 287 284 288 286 289 283 289 290 287 286 290 nan nan nan nan nan nan nan nan nan